Location: Newark
(34.3481°N, 134.0494°E)
Time: 21:16:32
(UTC+00:00)

Vanguard 3 - Pass Details

Date: 04 February 2020
Orbit: 508 x 3263 km, 33.3° (Epoch: 19 February)

Event Time Altitude Azimuth Distance (km) Brightness Sun altitude
Rises 10:35:12 0° 284° (WNW) 7,033 13.1 -24.9°
Reaches altitude 10° 10:39:47 10° 282° (WNW) 6,139 12.6 -25.9°
Maximum altitude 10:59:31 66° 207° (SSW) 3,224 10.1 -29.9°
Enters shadow 11:08:56 32° 137° (SE) 3,806 10.1 -31.9°
Drops below altitude 10° 11:14:35 10° 129° (SE) 4,841 - -33.0°
Sets 11:17:45 0° 126° (SE) 5,538 - -33.7°
